Find NNS 30100

NORAD ID: 2401 Int'l Des: 1966-076 Owner: NAVAIR Country: US operational
LEOCIRCULARPOLAR

リアルタイム位置

3D地球を読み込み中...

NNS 30100について

説明を読み込み中...

次回通過

Passes for default location (London). Set your location on the main map for personalized predictions.

高度履歴

Loading altitude history...

軌道要素

1 02401U 66076A 26106.97462233 .00000103 00000-0 13234-3 0 9993
2 02401 88.8437 72.9728 0034295 120.5446 286.7745 13.53942319942810
Epoch: Apr 16, 2026 • Age: 18 hours

現在のステータス

高度 1042.0 km
速度 7.34 km/s
衛星直下点 16.70°N, 141.21°E
タイプ other

Most Searched